Time,TemperatureF,DewpointF,PressureIn,WindDirection,WindDirectionDegrees,WindSpeedMPH,WindSpeedGustMPH,Humidity,HourlyPrecipIn,Conditions,Clouds,dailyrainin,SoftwareType,DateUTC
2013-01-03 00:02:00,17.0,12.0,30.20,SW,236,4.0,13.0,79,0.00,,,0.00,,2013-01-03 06:02:00,
2013-01-03 00:12:00,17.0,12.0,30.20,SW,236,4.0,13.0,79,0.00,,,0.00,,2013-01-03 06:12:00,
2013-01-03 00:22:00,17.0,12.0,30.19,SW,229,4.0,9.0,79,0.00,,,0.00,,2013-01-03 06:22:00,
2013-01-03 00:32:00,17.0,12.0,30.19,SW,227,3.0,9.0,80,0.00,,,0.00,,2013-01-03 06:32:00,
2013-01-03 00:42:00,17.0,12.0,30.19,SW,227,3.0,9.0,80,0.00,,,0.00,,2013-01-03 06:42:00,
2013-01-03 00:52:00,17.0,12.0,30.18,WSW,244,4.0,10.0,80,0.00,,,0.00,,2013-01-03 06:52:00,
2013-01-03 01:02:00,18.0,13.0,30.18,SW,228,2.0,8.0,80,0.00,,,0.00,,2013-01-03 07:02:00,
2013-01-03 01:12:00,18.0,13.0,30.18,SW,228,2.0,8.0,80,0.00,,,0.00,,2013-01-03 07:12:00,
2013-01-03 01:22:00,18.0,13.0,30.19,SW,236,3.0,9.0,81,0.00,,,0.00,,2013-01-03 07:22:00,
2013-01-03 01:33:00,18.0,13.0,30.19,WSW,246,3.0,6.0,81,0.00,,,0.00,,2013-01-03 07:33:00,
2013-01-03 01:42:00,18.0,13.0,30.19,WSW,246,3.0,6.0,81,0.00,,,0.00,,2013-01-03 07:42:00,
2013-01-03 01:52:00,19.0,14.0,30.19,WNW,284,3.0,7.0,80,0.00,,,0.00,,2013-01-03 07:52:00,
2013-01-03 02:02:00,18.0,13.0,30.19,WSW,246,3.0,9.0,81,0.00,,,0.00,,2013-01-03 08:02:00,
2013-01-03 02:12:00,18.0,13.0,30.19,WSW,246,3.0,9.0,81,0.00,,,0.00,,2013-01-03 08:12:00,
2013-01-03 02:22:00,19.0,14.0,30.19,SW,234,1.0,6.0,82,0.00,,,0.00,,2013-01-03 08:22:00,
2013-01-03 02:32:00,19.0,14.0,30.20,SW,231,1.0,6.0,81,0.00,,,0.00,,2013-01-03 08:32:00,
2013-01-03 02:42:00,19.0,14.0,30.20,SW,231,1.0,6.0,81,0.00,,,0.00,,2013-01-03 08:42:00,
2013-01-03 02:52:00,20.0,15.0,30.21,SW,229,1.0,6.0,81,0.00,,,0.00,,2013-01-03 08:52:00,
2013-01-03 03:02:00,21.0,16.0,30.20,WSW,250,1.0,5.0,81,0.00,,,0.00,,2013-01-03 09:02:00,
2013-01-03 03:12:00,21.0,16.0,30.20,WSW,250,1.0,5.0,81,0.00,,,0.00,,2013-01-03 09:12:00,
2013-01-03 03:22:00,21.0,16.0,30.20,SW,231,1.0,6.0,81,0.00,,,0.00,,2013-01-03 09:22:00,
2013-01-03 03:33:00,22.0,17.0,30.21,WSW,242,2.0,7.0,81,0.00,,,0.00,,2013-01-03 09:33:00,
2013-01-03 03:43:00,22.0,17.0,30.21,WSW,242,2.0,7.0,81,0.00,,,0.00,,2013-01-03 09:43:00,
2013-01-03 03:52:00,22.0,17.0,30.21,WSW,254,2.0,6.0,80,0.00,,,0.00,,2013-01-03 09:52:00,
2013-01-03 04:02:00,22.0,17.0,30.21,West,269,2.0,5.0,81,0.00,,,0.00,,2013-01-03 10:02:00,
2013-01-03 04:12:00,22.0,17.0,30.21,West,269,2.0,5.0,81,0.00,,,0.00,,2013-01-03 10:12:00,
2013-01-03 04:22:00,23.0,18.0,30.20,WSW,258,2.0,6.0,81,0.00,,,0.00,,2013-01-03 10:22:00,
2013-01-03 04:33:00,23.0,18.0,30.20,WSW,239,2.0,6.0,82,0.00,,,0.00,,2013-01-03 10:33:00,
2013-01-03 04:42:00,23.0,18.0,30.20,WSW,239,2.0,6.0,82,0.00,,,0.00,,2013-01-03 10:42:00,
2013-01-03 04:52:00,23.0,18.0,30.21,SW,232,1.0,5.0,81,0.00,,,0.00,,2013-01-03 10:52:00,
2013-01-03 05:02:00,22.0,17.0,30.21,SW,215,1.0,5.0,82,0.00,,,0.00,,2013-01-03 11:02:00,
2013-01-03 05:12:00,22.0,17.0,30.21,SW,215,1.0,5.0,82,0.00,,,0.00,,2013-01-03 11:12:00,
2013-01-03 05:22:00,22.0,17.0,30.21,SW,215,1.0,5.0,82,0.00,,,0.00,,2013-01-03 11:22:00,
2013-01-03 05:33:00,22.0,18.0,30.21,SW,228,1.0,4.0,83,0.00,,,0.00,,2013-01-03 11:33:00,
2013-01-03 05:43:00,22.0,18.0,30.21,SW,228,1.0,4.0,83,0.00,,,0.00,,2013-01-03 11:43:00,
2013-01-03 05:53:00,21.0,17.0,30.22,SSW,211,0.0,3.0,83,0.00,,,0.00,,2013-01-03 11:53:00,
2013-01-03 06:03:00,20.0,16.0,30.22,SW,219,0.0,3.0,84,0.00,,,0.00,,2013-01-03 12:03:00,
2013-01-03 06:12:00,20.0,16.0,30.22,SW,219,0.0,3.0,84,0.00,,,0.00,,2013-01-03 12:12:00,
2013-01-03 06:22:00,20.0,16.0,30.22,West,267,0.0,4.0,85,0.00,,,0.00,,2013-01-03 12:22:00,
2013-01-03 06:32:00,22.0,19.0,30.22,SW,234,2.0,5.0,87,0.00,,,0.00,,2013-01-03 12:32:00,
2013-01-03 06:42:00,22.0,19.0,30.22,SW,234,2.0,5.0,87,0.00,,,0.00,,2013-01-03 12:42:00,
2013-01-03 06:52:00,23.0,19.0,30.22,WSW,248,2.0,6.0,86,0.00,,,0.00,,2013-01-03 12:52:00,
2013-01-03 07:02:00,24.0,20.0,30.22,West,278,2.0,6.0,86,0.00,,,0.00,,2013-01-03 13:02:00,
2013-01-03 07:13:00,24.0,20.0,30.22,West,278,2.0,6.0,86,0.00,,,0.00,,2013-01-03 13:13:00,
2013-01-03 07:22:00,24.0,20.0,30.22,WNW,284,3.0,6.0,86,0.00,,,0.00,,2013-01-03 13:22:00,
2013-01-03 07:33:00,25.0,21.0,30.22,WSW,246,2.0,5.0,86,0.00,,,0.00,,2013-01-03 13:33:00,
2013-01-03 07:42:00,25.0,21.0,30.22,WSW,246,2.0,5.0,86,0.00,,,0.00,,2013-01-03 13:42:00,
2013-01-03 07:52:00,24.0,20.0,30.23,SW,217,1.0,6.0,86,0.00,,,0.00,,2013-01-03 13:52:00,
2013-01-03 08:03:00,24.0,21.0,30.22,West,270,1.0,5.0,87,0.00,,,0.00,,2013-01-03 14:03:00,
2013-01-03 08:12:00,24.0,21.0,30.22,West,270,1.0,5.0,87,0.00,,,0.00,,2013-01-03 14:12:00,
2013-01-03 08:22:00,25.0,22.0,30.23,SW,234,1.0,5.0,87,0.00,,,0.00,,2013-01-03 14:22:00,
2013-01-03 08:33:00,25.0,22.0,30.24,WSW,248,2.0,6.0,87,0.00,,,0.00,,2013-01-03 14:33:00,
2013-01-03 08:42:00,25.0,22.0,30.24,WSW,248,2.0,6.0,87,0.00,,,0.00,,2013-01-03 14:42:00,
2013-01-03 08:53:00,26.0,23.0,30.24,West,259,1.0,6.0,87,0.00,,,0.00,,2013-01-03 14:53:00,
2013-01-03 09:03:00,26.0,22.0,30.24,West,274,2.0,6.0,86,0.00,,,0.00,,2013-01-03 15:03:00,
2013-01-03 09:12:00,26.0,22.0,30.24,West,274,2.0,6.0,86,0.00,,,0.00,,2013-01-03 15:12:00,
2013-01-03 09:22:00,26.0,22.0,30.25,WSW,246,2.0,6.0,86,0.00,,,0.00,,2013-01-03 15:22:00,
2013-01-03 09:33:00,26.0,22.0,30.26,SW,230,1.0,5.0,86,0.00,,,0.00,,2013-01-03 15:33:00,
2013-01-03 09:43:00,26.0,22.0,30.26,SW,230,1.0,5.0,86,0.00,,,0.00,,2013-01-03 15:43:00,
2013-01-03 09:53:00,27.0,23.0,30.26,WSW,247,3.0,7.0,85,0.00,,,0.00,,2013-01-03 15:53:00,
2013-01-03 10:03:00,27.0,23.0,30.27,West,267,1.0,6.0,85,0.00,,,0.00,,2013-01-03 16:03:00,
2013-01-03 10:12:00,27.0,23.0,30.27,West,267,1.0,6.0,85,0.00,,,0.00,,2013-01-03 16:12:00,
2013-01-03 10:22:00,27.0,23.0,30.27,SW,233,2.0,7.0,85,0.00,,,0.00,,2013-01-03 16:22:00,
2013-01-03 10:33:00,27.0,23.0,30.27,SW,233,2.0,7.0,85,0.00,,,0.00,,2013-01-03 16:33:00,
2013-01-03 10:43:00,27.0,23.0,30.27,SW,233,2.0,7.0,85,0.00,,,0.00,,2013-01-03 16:43:00,
2013-01-03 10:52:00,28.0,24.0,30.28,WSW,246,2.0,7.0,84,0.00,,,0.00,,2013-01-03 16:52:00,
2013-01-03 11:03:00,28.0,24.0,30.28,SW,227,2.0,6.0,83,0.00,,,0.00,,2013-01-03 17:03:00,
2013-01-03 11:12:00,28.0,24.0,30.28,SW,227,2.0,6.0,83,0.00,,,0.00,,2013-01-03 17:12:00,
2013-01-03 11:23:00,29.0,25.0,30.28,WSW,239,3.0,7.0,83,0.00,,,0.00,,2013-01-03 17:23:00,
2013-01-03 11:33:00,29.0,25.0,30.28,WSW,248,3.0,8.0,83,0.00,,,0.00,,2013-01-03 17:33:00,
2013-01-03 11:43:00,29.0,25.0,30.28,WSW,248,3.0,8.0,83,0.00,,,0.00,,2013-01-03 17:43:00,
2013-01-03 11:52:00,29.0,25.0,30.28,West,266,3.0,8.0,83,0.00,,,0.00,,2013-01-03 17:52:00,
2013-01-03 12:03:00,29.0,25.0,30.28,West,263,2.0,5.0,83,0.00,,,0.00,,2013-01-03 18:03:00,
2013-01-03 12:13:00,29.0,25.0,30.28,West,263,2.0,5.0,83,0.00,,,0.00,,2013-01-03 18:13:00,
2013-01-03 12:22:00,29.0,25.0,30.27,SW,221,2.0,6.0,83,0.00,,,0.00,,2013-01-03 18:22:00,
2013-01-03 12:33:00,30.0,25.0,30.27,WSW,242,2.0,5.0,83,0.00,,,0.00,,2013-01-03 18:33:00,
2013-01-03 12:42:00,30.0,25.0,30.27,WSW,242,2.0,5.0,83,0.00,,,0.00,,2013-01-03 18:42:00,
2013-01-03 12:53:00,31.0,26.0,30.26,West,278,3.0,8.0,80,0.00,,,0.00,,2013-01-03 18:53:00,
2013-01-03 13:03:00,30.0,25.0,30.26,West,263,3.0,10.0,80,0.00,,,0.00,,2013-01-03 19:03:00,
2013-01-03 13:12:00,30.0,25.0,30.26,West,263,3.0,10.0,80,0.00,,,0.00,,2013-01-03 19:12:00,
2013-01-03 13:57:00,30.0,24.0,30.26,WNW,301,4.0,12.0,77,0.00,,,0.00,,2013-01-03 19:57:00,
2013-01-03 14:03:00,30.0,24.0,30.26,WSW,239,4.0,9.0,77,0.00,,,0.00,,2013-01-03 20:03:00,
2013-01-03 14:12:00,30.0,24.0,30.26,WSW,239,4.0,9.0,77,0.00,,,0.00,,2013-01-03 20:12:00,
2013-01-03 14:22:00,31.0,25.0,30.26,WNW,284,4.0,8.0,77,0.00,,,0.00,,2013-01-03 20:22:00,
2013-01-03 14:33:00,31.0,24.0,30.27,WNW,303,5.0,12.0,76,0.00,,,0.00,,2013-01-03 20:33:00,
2013-01-03 14:42:00,31.0,24.0,30.27,WNW,303,5.0,12.0,76,0.00,,,0.00,,2013-01-03 20:42:00,
2013-01-03 14:53:00,31.0,25.0,30.27,WNW,300,3.0,10.0,77,0.00,,,0.00,,2013-01-03 20:53:00,
2013-01-03 15:02:00,30.0,23.0,30.28,West,275,6.0,14.0,75,0.00,,,0.00,,2013-01-03 21:02:00,
2013-01-03 15:12:00,30.0,23.0,30.28,West,275,6.0,14.0,75,0.00,,,0.00,,2013-01-03 21:12:00,
2013-01-03 15:22:00,30.0,23.0,30.29,West,279,5.0,12.0,74,0.00,,,0.00,,2013-01-03 21:22:00,
2013-01-03 15:36:00,29.0,21.0,30.29,WNW,297,5.0,10.0,73,0.00,,,0.00,,2013-01-03 21:36:00,
2013-01-03 15:48:00,29.0,21.0,30.29,WNW,297,5.0,10.0,73,0.00,,,0.00,,2013-01-03 21:48:00,
2013-01-03 16:03:00,28.0,21.0,30.29,WNW,282,2.0,7.0,74,0.00,,,0.00,,2013-01-03 22:03:00,
2013-01-03 16:12:00,28.0,21.0,30.29,WNW,282,2.0,7.0,74,0.00,,,0.00,,2013-01-03 22:12:00,
2013-01-03 16:22:00,27.0,20.0,30.30,West,272,2.0,6.0,76,0.00,,,0.00,,2013-01-03 22:22:00,
2013-01-03 16:33:00,26.0,19.0,30.30,West,275,2.0,6.0,76,0.00,,,0.00,,2013-01-03 22:33:00,
2013-01-03 16:42:00,26.0,19.0,30.30,West,275,2.0,6.0,76,0.00,,,0.00,,2013-01-03 22:42:00,
2013-01-03 16:52:00,26.0,19.0,30.30,West,271,1.0,4.0,76,0.00,,,0.00,,2013-01-03 22:52:00,
2013-01-03 17:02:00,25.0,19.0,30.31,West,272,1.0,3.0,77,0.00,,,0.00,,2013-01-03 23:02:00,
2013-01-03 17:12:00,25.0,19.0,30.31,West,272,1.0,3.0,77,0.00,,,0.00,,2013-01-03 23:12:00,
2013-01-03 17:22:00,24.0,18.0,30.31,West,261,2.0,5.0,78,0.00,,,0.00,,2013-01-03 23:22:00,
2013-01-03 17:33:00,23.0,17.0,30.32,West,276,1.0,5.0,78,0.00,,,0.00,,2013-01-03 23:33:00,
2013-01-03 17:43:00,23.0,17.0,30.32,West,276,1.0,5.0,78,0.00,,,0.00,,2013-01-03 23:43:00,
2013-01-03 17:52:00,22.0,16.0,30.32,WNW,283,0.0,4.0,77,0.00,,,0.00,,2013-01-03 23:52:00,
2013-01-03 18:03:00,22.0,16.0,30.33,WSW,251,0.0,3.0,77,0.00,,,0.00,,2013-01-04 00:03:00,
2013-01-03 18:12:00,22.0,16.0,30.33,WSW,251,0.0,3.0,77,0.00,,,0.00,,2013-01-04 00:12:00,
2013-01-03 18:22:00,21.0,15.0,30.34,WNW,303,0.0,3.0,77,0.00,,,0.00,,2013-01-04 00:22:00,
2013-01-03 18:32:00,20.0,14.0,30.34,West,275,1.0,3.0,77,0.00,,,0.00,,2013-01-04 00:32:00,
2013-01-03 18:42:00,20.0,14.0,30.34,West,275,1.0,3.0,77,0.00,,,0.00,,2013-01-04 00:42:00,
2013-01-03 18:52:00,20.0,14.0,30.34,West,273,0.0,3.0,78,0.00,,,0.00,,2013-01-04 00:52:00,
2013-01-03 19:02:00,19.0,13.0,30.35,West,273,0.0,0.0,78,0.00,,,0.00,,2013-01-04 01:02:00,
2013-01-03 19:12:00,19.0,13.0,30.35,West,273,0.0,0.0,78,0.00,,,0.00,,2013-01-04 01:12:00,
2013-01-03 19:22:00,18.0,13.0,30.35,West,273,0.0,0.0,79,0.00,,,0.00,,2013-01-04 01:22:00,
2013-01-03 19:33:00,17.0,12.0,30.35,West,273,0.0,1.0,80,0.00,,,0.00,,2013-01-04 01:33:00,
2013-01-03 19:42:00,17.0,12.0,30.35,West,273,0.0,1.0,80,0.00,,,0.00,,2013-01-04 01:42:00,
2013-01-03 19:52:00,16.0,11.0,30.35,West,273,0.0,0.0,81,0.00,,,0.00,,2013-01-04 01:52:00,
2013-01-03 20:02:00,15.0,11.0,30.36,West,273,0.0,1.0,82,0.00,,,0.00,,2013-01-04 02:02:00,
2013-01-03 20:12:00,15.0,11.0,30.36,West,273,0.0,1.0,82,0.00,,,0.00,,2013-01-04 02:12:00,
2013-01-03 20:22:00,15.0,11.0,30.36,West,273,0.0,0.0,82,0.00,,,0.00,,2013-01-04 02:22:00,
2013-01-03 20:32:00,14.0,10.0,30.36,West,273,0.0,1.0,84,0.00,,,0.00,,2013-01-04 02:32:00,
2013-01-03 20:42:00,14.0,10.0,30.36,West,273,0.0,1.0,84,0.00,,,0.00,,2013-01-04 02:42:00,
2013-01-03 20:52:00,14.0,10.0,30.36,West,271,0.0,0.0,83,0.00,,,0.00,,2013-01-04 02:52:00,
2013-01-03 21:02:00,15.0,11.0,30.36,West,271,0.0,2.0,83,0.00,,,0.00,,2013-01-04 03:02:00,
2013-01-03 21:12:00,15.0,11.0,30.36,West,271,0.0,2.0,83,0.00,,,0.00,,2013-01-04 03:12:00,
2013-01-03 21:22:00,14.0,10.0,30.36,West,271,0.0,1.0,83,0.00,,,0.00,,2013-01-04 03:22:00,
2013-01-03 21:32:00,15.0,11.0,30.36,West,271,0.0,1.0,83,0.00,,,0.00,,2013-01-04 03:32:00,
2013-01-03 21:42:00,15.0,11.0,30.36,West,271,0.0,1.0,83,0.00,,,0.00,,2013-01-04 03:42:00,
2013-01-03 21:52:00,15.0,11.0,30.36,WNW,299,0.0,2.0,83,0.00,,,0.00,,2013-01-04 03:52:00,
2013-01-03 22:02:00,15.0,11.0,30.36,WNW,299,0.0,2.0,82,0.00,,,0.00,,2013-01-04 04:02:00,
2013-01-03 22:12:00,15.0,11.0,30.36,WNW,299,0.0,2.0,82,0.00,,,0.00,,2013-01-04 04:12:00,
2013-01-03 22:22:00,14.0,10.0,30.37,WNW,298,0.0,1.0,83,0.00,,,0.00,,2013-01-04 04:22:00,
2013-01-03 22:32:00,15.0,11.0,30.36,WSW,252,0.0,2.0,82,0.00,,,0.00,,2013-01-04 04:32:00,
2013-01-03 22:42:00,15.0,11.0,30.36,WSW,252,0.0,2.0,82,0.00,,,0.00,,2013-01-04 04:42:00,
2013-01-03 22:52:00,15.0,10.0,30.36,WSW,254,0.0,3.0,81,0.00,,,0.00,,2013-01-04 04:52:00,
2013-01-03 23:03:00,15.0,10.0,30.36,West,266,0.0,2.0,81,0.00,,,0.00,,2013-01-04 05:03:00,
2013-01-03 23:12:00,15.0,10.0,30.36,West,266,0.0,2.0,81,0.00,,,0.00,,2013-01-04 05:12:00,
2013-01-03 23:22:00,15.0,10.0,30.36,West,266,0.0,2.0,81,0.00,,,0.00,,2013-01-04 05:22:00,
2013-01-03 23:33:00,15.0,10.0,30.36,West,266,0.0,2.0,81,0.00,,,0.00,,2013-01-04 05:33:00,
2013-01-03 23:53:00,14.0,9.0,30.35,SW,227,0.0,5.0,81,0.00,,,0.00,,2013-01-04 05:53:00,